AO-07 1 07530U 74089B 22251.82348476 -.00000035 00000-0 69875-4 0 9995 2 07530 101.9133 231.9800 0011826 241.9899 234.8968 12.53656796188151 UO-11 1 14781U 84021B 22251.40152727 .00000800 00000-0 10258-3 0 9993 2 14781 97.6249 235.0886 0009689 55.3902 304.8226 14.83782708 52345 LO-19 1 20442U 90005G 22251.39601225 .00000081 00000-0 46275-4 0 9993 2 20442 98.8026 217.5579 0010677 287.5708 72.4309 14.33082468704983 HUBBLE 1 20580U 90037B 22251.94784765 .00002290 00000-0 12351-3 0 9994 2 20580 28.4710 335.4441 0002371 209.1188 322.4572 15.10837407579120 MET-2/21 1 22782U 93055A 22251.73490830 .00000096 00000-0 72549-4 0 9995 2 22782 82.5490 308.1440 0023586 112.8399 25.0020 13.83858517465797 AO-27 1 22825U 93061C 22251.83777451 .00000054 00000-0 38805-4 0 9999 2 22825 98.8821 284.6168 0008783 161.9062 198.2434 14.30189371510344 IO-26 1 22826U 93061D 22251.35117788 .00000072 00000-0 45189-4 0 9991 2 22826 98.8766 283.9945 0009522 150.7471 209.4245 14.30537440510260 FO-29 1 24278U 96046B 22251.84144088 .00000025 00000-0 58785-4 0 9991 2 24278 98.5158 264.0554 0351257 67.0116 296.7673 13.53119594287133 NOAA-15 1 25338U 98030A 22251.83831461 .00000107 00000-0 62797-4 0 9990 2 25338 98.6400 280.2653 0011303 58.5330 301.6953 14.26168153265151 GO-32 1 25397U 98043D 22251.35441866 .00000039 00000-0 36721-4 0 9994 2 25397 98.8242 202.0668 0000792 169.3784 190.7411 14.23768827255228 ISS 1 25544U 98067A 22251.86567130 .00007458 00000-0 13803-3 0 9990 2 25544 51.6441 282.0293 0002636 208.5437 134.7895 15.50103990358157 NO-44 1 26931U 01043C 22251.56990501 .00000074 00000-0 59855-4 0 9993 2 26931 67.0508 203.8551 0006312 257.4187 102.6208 14.30729741 93457 SO-50 1 27607U 02058C 22251.85210336 .00000584 00000-0 10030-3 0 9991 2 27607 64.5550 46.6670 0081291 278.4616 80.7279 14.76225000 60896 CO-55 1 27844U 03031E 22251.77927187 .00000206 00000-0 11193-3 0 9998 2 27844 98.6809 258.2140 0009083 215.4804 144.5771 14.22489112995751 CO-57 1 27848U 03031J 22251.69797183 .00000164 00000-0 94032-4 0 9991 2 27848 98.6853 258.6356 0008759 231.4328 128.6066 14.22041186995547 RS-22 1 27939U 03042A 22251.79197585 .00000771 00000-0 14493-3 0 9991 2 27939 98.2030 32.5459 0011697 308.5443 51.4716 14.67450112 13260 NOAA-18 1 28654U 05018A 22251.70643453 .00000153 00000-0 10660-3 0 9998 2 28654 98.9434 322.0547 0015332 96.6178 263.6739 14.12772794891826 CO-58 1 28895U 05043F 22251.33230654 .00000812 00000-0 16222-3 0 9999 2 28895 98.1173 21.4872 0015542 237.9314 122.0380 14.64455314899776 Falconsat-3 1 30776U 07006E 22251.53277799 .00051148 00000-0 63000-3 0 9998 2 30776 35.4300 73.7863 0001931 33.0057 327.0796 15.59114046862530 CO-65 1 32785U 08021C 22251.38375160 .00001822 00000-0 19516-3 0 9999 2 32785 97.6658 219.6508 0011650 325.8684 34.1784 14.89823405778832 AAUSAT2 1 32788U 08021F 22251.41316720 .00003640 00000-0 31258-3 0 9990 2 32788 97.5388 233.8484 0010630 196.8723 163.2148 14.98016735780855 DO-64 1 32789U 08021G 22251.52803700 .00012775 00000-0 67869-3 0 9998 2 32789 97.3362 274.8987 0011111 46.1739 314.0410 15.15377695784507 CO-66 1 32791U 08021J 22251.62445958 .00002795 00000-0 27376-3 0 9999 2 32791 97.6193 225.2915 0010773 273.9054 86.0934 14.93019550779687 RS-30 1 32953U 08025A 22251.91961699 .00000024 00000-0 10000-3 0 9999 2 32953 82.5035 132.0454 0020211 76.8590 283.4736 12.43112992648709 PRISM 1 33493U 09002B 22251.25642859 .00004713 00000-0 37941-3 0 9998 2 33493 98.2354 242.5745 0013892 275.1738 84.7899 15.00421434741393 NOAA-19 1 33591U 09005A 22251.85877118 .00000115 00000-0 87021-4 0 9991 2 33591 99.1424 287.7248 0013160 316.7970 43.2168 14.12606355700222 SRMSAT 1 37841U 11058D 22251.31948703 .00000355 00000-0 50065-4 0 9998 2 37841 19.9717 114.0163 0011914 174.3186 343.0207 14.10769262562955 HRBE 1 37855U 11061F 22251.69887175 .00014293 00000-0 60643-3 0 9991 2 37855 101.7189 54.9692 0149983 172.8311 187.5099 15.13637972594291 RS-40 1 38735U 12041C 22251.58853874 .00000016 00000-0 43350-4 0 9990 2 38735 82.4762 213.6522 0016773 185.9573 174.1311 12.42586784458844 ZACUBE-1 1 39417U 13066B 22251.32099259 .00001527 00000-0 19062-3 0 9997 2 39417 97.6447 219.1222 0058688 131.7606 228.8646 14.82560279475401 Delfi-N3xt 1 39428U 13066N 22251.33667729 .00003236 00000-0 49924-3 0 9992 2 39428 97.8143 182.1466 0117450 13.6155 346.8173 14.69464597470702 GOMX-1 1 39430U 13066Q 22251.84543198 .00000898 00000-0 16746-3 0 9991 2 39430 97.8012 154.2616 0149658 141.5143 219.6867 14.60333875468462 LO-74 1 39440U 13066AA 22251.30216794 .00001166 00000-0 16388-3 0 9993 2 39440 97.7330 205.4155 0077238 221.9305 137.5975 14.77224365472519 AO-73 1 39444U 13066AE 22251.88305982 .00001952 00000-0 23565-3 0 9996 2 39444 97.6320 222.0778 0057810 117.8779 242.8308 14.83687581474487 SPROUT 1 39770U 14029E 22251.58202594 .00006542 00000-0 65506-3 0 9991 2 39770 97.9492 9.1118 0009580 164.4206 195.7485 14.91710468450057 DTUSAT-2 1 40030U 14033W 22251.77936172 .00002029 00000-0 21493-3 0 9997 2 40030 97.9383 184.9010 0012586 133.8628 226.3632 14.90217086446561 EO-80 1 40032U 14033Y 22251.75314844 .00002140 00000-0 22648-3 0 9990 2 40032 97.9383 184.8893 0012575 134.9140 225.3100 14.90190162446542 HODOYOSHI-1 1 40299U 14070B 22251.69385753 .00005471 00000-0 20515-3 0 9997 2 40299 97.2363 317.3772 0011652 194.4988 322.1632 15.27581005435762 FIREBIRD FU3 1 40377U 15003B 22251.24985903 .00018565 00000-0 52260-3 0 9995 2 40377 99.0875 134.7270 0097278 103.9895 257.2181 15.31847200421085 FIREBIRD FU4 1 40378U 15003C 22251.79252738 .00017536 00000-0 49202-3 0 9998 2 40378 99.0878 135.6215 0097182 101.7812 259.4346 15.31971006421187 GRIFEX 1 40379U 15003D 22251.77881786 .00010983 00000-0 37561-3 0 9992 2 40379 99.1007 120.5731 0113160 146.9520 213.8851 15.24503202420322 XW-2A 1 40903U 15049E 22251.66983604 .00027607 00000-0 38836-3 0 9992 2 40903 97.1711 310.4646 0009605 161.6730 297.6642 15.56587733392192 XW-2C 1 40906U 15049H 22251.70093814 .00005738 00000-0 27073-3 0 9997 2 40906 97.4958 254.4964 0015460 71.4962 340.9337 15.19754800385568 XW-2D 1 40907U 15049J 22251.69814398 .00006643 00000-0 30623-3 0 9995 2 40907 97.4954 254.5520 0014748 68.1236 51.8560 15.20506978385614 LILACSAT-2 1 40908U 15049K 22251.97623736 .00003328 00000-0 17532-3 0 9992 2 40908 97.5206 251.7666 0016957 87.9259 300.6417 15.16177331385140 XW-2E 1 40909U 15049L 22251.96845278 .00010926 00000-0 44253-3 0 9991 2 40909 97.4664 259.5482 0013221 48.5691 341.6855 15.24765623386131 XW-2F 1 40910U 15049M 22251.67403044 .00010679 00000-0 43951-3 0 9991 2 40910 97.4741 258.4088 0014266 49.4714 42.3866 15.24220278385852 XW-2B 1 40911U 15049N 22251.65875911 .00006705 00000-0 31012-3 0 9996 2 40911 97.4933 255.0848 0014625 68.4167 24.0016 15.20386461385492 DCBB 1 40912U 15049P 22252.01652417 .00012708 00000-0 47328-3 0 9999 2 40912 97.4371 263.0976 0012759 16.8933 10.0064 15.27529408386502 TW-1A 1 40928U 15051D 22251.72227347 .00062694 00000-0 60051-3 0 9993 2 40928 97.0342 273.9970 0008559 81.1251 30.3477 15.66435116391243 IO-86 1 40931U 15052B 22251.65111792 .00000851 00000-0 29121-4 0 9997 2 40931 5.9996 295.6129 0013130 270.3472 89.5117 14.76852671375669 AO-85 1 40967U 15058D 22250.41611849 .00001004 00000-0 12360-3 0 4748 2 40967 64.7728 182.5350 0184311 173.8114 186.5334 14.77676738 72778 ATHENOXAT-1 1 41168U 15077C 22251.98262843 .00016295 00000-0 64360-3 0 9999 2 41168 14.9869 190.4820 0009876 331.8611 96.0769 15.22696115373059 ChubuSat-2 1 41338U 16012B 22251.29753950 .00001910 00000-0 13703-3 0 9999 2 41338 31.0020 216.3097 0013428 254.7114 105.2037 15.01606437359948 ChubuSat-3 1 41339U 16012C 22251.28657911 .00001744 00000-0 12437-3 0 9997 2 41339 31.0105 213.2913 0013567 263.2344 96.6761 15.01665913359941 Horyu-4 1 41340U 16012D 22251.15864286 .00003169 00000-0 21909-3 0 9997 2 41340 31.0038 190.7754 0013324 302.8757 57.0597 15.03707222360187 e-st@r-II 1 41459U 16025D 22251.74786547 .00009934 00000-0 41675-3 0 9998 2 41459 98.1931 63.2065 0140715 346.7528 13.0001 15.15067069350105 AAUSAT4 1 41460U 16025E 22251.44586215 .00017231 00000-0 62192-3 0 9993 2 41460 98.1824 69.8950 0119895 320.9261 38.3341 15.21958315350552 LO-87 1 41557U 16033B 22251.86354800 .00015543 00000-0 43871-3 0 9995 2 41557 97.3896 349.8095 0011844 81.4987 35.2500 15.36400471350182 NuSat2 1 41558U 16033C 22251.85391662 .00015616 00000-0 41502-3 0 9992 2 41558 97.4113 355.9703 0011114 71.4201 44.9215 15.38278759350463 Lapan A3 1 41603U 16040E 22251.74464525 .00001433 00000-0 67773-4 0 9999 2 41603 97.2005 285.1267 0011777 223.1958 271.6987 15.20855555344690 Pratham 1 41783U 16059A 22251.70865314 .00000333 00000-0 72918-4 0 9990 2 41783 97.9073 289.9039 0031944 270.9204 88.8338 14.63416674317804 TY-1 1 41844U 16066D 22251.99029527 .00014817 00000-0 47825-3 0 9995 2 41844 97.3895 263.7142 0012299 1.7889 28.6017 15.32158491324399 CAS-2T 1 41847U 16066G 22251.17610108 .00000433 00000-0 75765-4 0 9993 2 41847 98.5441 315.7320 0362665 322.5707 35.0712 14.38711740306241 EO-88 1 42017U 17008BX 22251.11832241 .00017488 00000-0 48697-3 0 9999 2 42017 97.2625 316.1305 0003227 320.7292 39.3718 15.36860610309767 CAS-4B 1 42759U 17034B 22251.80148934 .00003491 00000-0 21028-3 0 9994 2 42759 43.0157 233.1144 0008134 91.7773 334.1876 15.12380690288978 CAS-4A 1 42761U 17034D 22251.68535880 .00003165 00000-0 19139-3 0 9991 2 42761 43.0170 232.4822 0008472 91.2201 252.6947 15.12462093288956 NIUSat 1 42766U 17036B 22251.09796978 .00008781 00000-0 32795-3 0 9992 2 42766 97.1966 286.0036 0014209 41.1699 319.0609 15.27505896289416 Aalto 1 1 42775U 17036L 22251.64098473 .00007098 00000-0 27362-3 0 9992 2 42775 97.1919 286.2980 0013195 39.4015 320.8181 15.26536591289464 URSA MAIOR 1 42776U 17036M 22251.06466901 .00007634 00000-0 28845-3 0 9997 2 42776 97.1936 286.5592 0012827 40.3026 319.9162 15.27184869289411 Max Valier Sat 1 42778U 17036P 22251.38563228 .00007858 00000-0 28900-3 0 9994 2 42778 97.1992 289.6679 0011497 40.8583 319.3517 15.28082299289569 Pegasus 1 42784U 17036V 22251.06498080 .00011377 00000-0 38928-3 0 9991 2 42784 97.1932 290.3730 0010715 42.5974 317.6096 15.30346294289645 NUDATSat 1 42787U 17036Y 22251.93720915 .00022727 00000-0 64181-3 0 9996 2 42787 97.1969 296.0034 0009142 25.8409 334.3291 15.36330449289900 SUCHAI 1 1 42788U 17036Z 22251.34834550 .00013098 00000-0 41935-3 0 9996 2 42788 97.1934 292.5218 0009693 37.2085 322.9827 15.32467621289879 SKCUBE 1 42789U 17036AA 22251.06366559 .00012847 00000-0 42357-3 0 9995 2 42789 97.1935 291.6089 0009861 39.4016 320.7941 15.31526445289717 VZLUSAT 1 1 42790U 17036AB 22251.36771390 .00018503 00000-0 52736-3 0 9990 2 42790 97.1956 295.3936 0008059 30.9072 329.2645 15.36092434289963 VENTA 1 1 42791U 17036AC 22251.06701201 .00011352 00000-0 38372-3 0 9997 2 42791 97.1939 291.4222 0009758 40.3545 319.8419 15.30752242289695 Robusta 1B 1 42792U 17036AD 22251.38028729 .00013163 00000-0 42520-3 0 9992 2 42792 97.1934 292.5464 0009387 38.7209 321.4705 15.32184285289816 D-SAT 1 42794U 17036AF 22251.26290513 .00001284 00000-0 11192-3 0 9995 2 42794 97.4547 252.3302 0122797 167.0843 193.3572 14.92926821283836 TechnoSat 1 42829U 17042E 22251.85191947 .00001166 00000-0 11989-3 0 9990 2 42829 97.4126 101.0973 0015573 88.4016 271.8988 14.92022134280523 AO-91 1 43017U 17073E 22251.23481614 .00003548 00000-0 26973-3 0 9994 2 43017 97.6632 142.0256 0245286 276.7221 80.6136 14.81940634259374 PICSAT 1 43132U 18004X 22251.75352627 .00015010 00000-0 46871-3 0 9991 2 43132 97.3677 327.7596 0008457 69.0122 291.2025 15.33253135259162 AO-92 1 43137U 18004AC 22251.15327529 .00009996 00000-0 33904-3 0 9992 2 43137 97.3640 325.6162 0008830 74.0416 286.1797 15.30692161258992 TianYi 2 1 43155U 18008A 22252.01141443 .00007517 00000-0 39084-3 0 9993 2 43155 97.3456 307.7426 0015143 208.8170 270.4864 15.16243081255939 Zhou Enlai 1 43156U 18008B 22251.97237331 .00007201 00000-0 37703-3 0 9996 2 43156 97.3503 307.6075 0012521 208.4108 275.3956 15.16046195255850 TianYi 6 1 43158U 18008D 22251.75169816 .00006747 00000-0 36532-3 0 9999 2 43158 97.3482 305.1989 0011254 212.6332 267.1511 15.14891411255711 S-Net D 1 43186U 18014G 22251.52268585 .00001495 00000-0 13097-3 0 9991 2 43186 97.6486 155.6542 0011239 24.0371 336.1374 14.98137266251355 S-Net B 1 43187U 18014H 22251.45613779 .00001470 00000-0 12887-3 0 9992 2 43187 97.6484 155.5363 0011282 24.3977 335.7777 14.98134656251348 S-Net A 1 43188U 18014J 22251.72360884 .00001481 00000-0 12978-3 0 9992 2 43188 97.6487 155.8665 0011242 23.6065 336.5671 14.98135028251386 S-Net C 1 43189U 18014K 22251.72446214 .00001516 00000-0 13271-3 0 9991 2 43189 97.6481 155.7866 0011219 23.5031 336.6702 14.98131798249933 FMN 1 1 43192U 18015A 22251.72546588 .00037849 00000-0 87743-3 0 9994 2 43192 97.5440 39.3654 0010393 94.8123 33.4280 15.42265788256262 Shaonian Xing 1 43199U 18015H 22251.73525161 .00021016 00000-0 58981-3 0 9997 2 43199 97.5240 33.7185 0013333 103.7097 12.7978 15.36499142256227 SurfSat 1 43614U 18070B 22251.87981636 .00049975 00000-0 58823-3 0 9997 2 43614 93.0213 134.2960 0012041 58.8140 301.4305 15.61159342224053 CP-7 DAVE 1 43615U 18070C 22251.20200300 .00041105 00000-0 52293-3 0 9999 2 43615 93.0204 133.7652 0012897 62.7793 297.4784 15.59131212223904 ELFIN-B 1 43616U 18070D 22251.66416543 .00363692 49058-4 11982-2 0 9995 2 43616 93.0060 136.0750 0006645 76.0104 284.1916 15.90416537224461 ELFIN-A 1 43617U 18070E 22251.66265222 .00755953 27653-3 12664-2 0 9991 2 43617 93.0098 137.7618 0004708 108.3208 251.8593 16.02925023224557 CubeBel-1 1 43666U 18083E 22251.72734958 .00010178 00000-0 41647-3 0 9994 2 43666 97.4177 279.5180 0014185 45.7426 62.8194 15.24429316214162 Changshagaoxin 1 43669U 18083H 22251.79673566 .00009439 00000-0 40615-3 0 9993 2 43669 97.4119 275.3066 0010739 47.6269 66.9818 15.22788400213982 Ten-Koh 1 43677U 18084G 22251.61885183 .00001045 00000-0 11071-3 0 9993 2 43677 97.9751 22.4839 0015712 2.5591 357.5704 14.91269043210073 PO-101 1 43678U 18084H 22251.79892487 .00000858 00000-0 89810-4 0 9996 2 43678 97.9816 26.0989 0010238 18.2190 341.9416 14.92283381210281 IRVINE 01 1 43693U 18088D 22251.48975251 .00045063 00000-0 10184-2 0 9997 2 43693 85.0231 254.3167 0013758 143.0705 217.1498 15.42890792213003 QO-100 1 43700U 18090A 22251.25465912 .00000123 00000-0 00000-0 0 9994 2 43700 0.0127 222.5341 0002192 334.9941 267.2522 1.00273217 13869 Reaktor Hello World 1 43743U 18096AA 22251.46107361 .00014215 00000-0 41047-3 0 9997 2 43743 97.3491 331.0567 0015779 119.8411 240.4403 15.35651275210690 MinXSS-2 1 43758U 18099A 22251.83632825 .00002147 00000-0 18760-3 0 9992 2 43758 97.6177 317.7366 0014679 349.4402 10.6510 14.97742119205580 AO-95 1 43770U 18099N 22251.63004936 .00001662 00000-0 15011-3 0 9997 2 43770 97.6145 315.8090 0014065 2.2136 357.9146 14.96754259205454 RANGE-B 1 43772U 18099Q 22251.65406525 .00003013 00000-0 26323-3 0 9991 2 43772 97.6253 317.7093 0012847 348.2918 11.8004 14.97466648205482 RANGE-A 1 43773U 18099R 22251.17589217 .00001638 00000-0 14992-3 0 9999 2 43773 97.6061 314.1126 0012767 351.9710 8.1306 14.96258241205368 MOVE-II 1 43780U 18099Y 22251.64606908 .00003663 00000-0 31267-3 0 9990 2 43780 97.6177 317.1625 0012166 355.5530 4.5583 14.98246245205511 SNUSat 2 1 43782U 18099AA 22251.46798415 .00002897 00000-0 25706-3 0 9996 2 43782 97.6152 316.1346 0011699 351.6263 8.4761 14.96901089205451 SnugLite 1 43784U 18099AC 22251.69345622 .00001598 00000-0 14305-3 0 9991 2 43784 97.6109 315.9849 0014415 354.8247 5.2824 14.97142545205513 ITASat 1 1 43786U 18099AE 22251.14852048 .00001760 00000-0 15821-3 0 9993 2 43786 97.6181 316.3019 0014577 358.2740 1.8429 14.96861185205424 EAGLET 1 1 43790U 18099AJ 22251.70396189 .00001128 00000-0 10288-3 0 9999 2 43790 97.6156 317.3849 0012953 358.2816 1.8359 14.96978142205247 ESEO 1 43792U 18099AL 22251.73965156 .00001286 00000-0 11855-3 0 9996 2 43792 97.6116 316.5116 0012904 357.9574 2.1593 14.96327097205281 CSIM 1 43793U 18099AM 22251.71534719 .00003540 00000-0 29716-3 0 9992 2 43793 97.6182 318.2128 0011372 344.6982 15.3896 14.98921952205353 Astrocast 0.1 1 43798U 18099AS 22251.63742041 .00003100 00000-0 26663-3 0 9997 2 43798 97.6173 317.9164 0011439 333.1333 26.9296 14.98069151205560 JO-97 1 43803U 18099AX 22251.67158288 .00003123 00000-0 27281-3 0 9994 2 43803 97.6141 316.5927 0014100 356.0868 4.0242 14.97429685205524 Suomi 100 1 43804U 18099AY 22251.62843960 .00001700 00000-0 15126-3 0 9992 2 43804 97.6129 316.4560 0014505 353.8575 6.2467 14.97309405205522 Al Farabi 2 1 43805U 18099AZ 22251.91560221 .00003990 00000-0 34234-3 0 9995 2 43805 97.6138 317.3176 0014582 350.6389 9.4559 14.97969808205592 CHOMPTT 1 43855U 18104G 22251.60714250 .00008982 00000-0 32007-3 0 9998 2 43855 85.0393 355.6650 0012880 291.7796 68.2079 15.28680155207423 ISAT 1 43879U 18111D 22251.68278625 .00003637 00000-0 30938-3 0 9994 2 43879 97.6562 155.7757 0013928 48.2692 311.9720 14.98377023200110 UWE-4 1 43880U 18111E 22251.67791939 .00003117 00000-0 26497-3 0 9991 2 43880 97.6587 156.5232 0012806 48.5130 311.7190 14.98510560200169 Sparrow 1 43881U 18111F 22251.68626938 .00003703 00000-0 31240-3 0 9992 2 43881 97.6608 156.7908 0013339 47.3169 312.9175 14.98688126200178 Lume 1 1 43908U 18111AJ 22251.12237260 .00009344 00000-0 30627-3 0 9992 2 43908 97.1792 136.3515 0019367 133.9735 226.3108 15.31662002206042 FO-99 1 43937U 19003F 22251.53827580 .00012429 00000-0 39784-3 0 9991 2 43937 97.1256 281.7271 0018828 210.7423 149.2718 15.32357115202696 MYSat 1 1 44045U 18092F 22251.64387175 .00073817 00000-0 81922-3 0 9991 2 44045 51.6302 15.3291 0006728 36.4260 323.7191 15.62235390200847 AstroCast 0.2 1 44083U 19018F 22251.62392663 .00010551 00000-0 38552-3 0 9995 2 44083 97.3150 308.9526 0010104 181.5909 178.5301 15.28230207191183 AISTechSat 3 1 44103U 19018AB 22251.38869918 .00008606 00000-0 31049-3 0 9995 2 44103 97.3018 309.0266 0011521 192.9584 167.1361 15.28690238191310 AISat 1 1 44104U 19018AC 22251.23400091 .00008323 00000-0 22669-3 0 9997 2 44104 97.3933 334.7335 0050659 195.0142 164.9601 15.36436793192303 Prox-1 1 44339U 19036A 22251.71288141 .00003097 00000-0 65050-3 0 9994 2 44339 24.0016 27.7011 0011016 47.3030 312.8389 14.55436280170585 Oculus-ASR 1 44348U 19036K 22251.63343937 .00090751 -43994-5 75051-3 0 9990 2 44348 28.5009 334.6626 0212655 170.8139 189.6436 15.44677417177388 NO-104 1 44354U 19036R 22251.53082969 .00088731 -45697-5 68511-3 0 9991 2 44354 28.5246 318.9152 0202074 192.6648 166.8821 15.47957121177525 Move-IIb 1 44398U 19038N 22251.86761750 .00014186 00000-0 65489-3 0 9996 2 44398 97.6324 222.0989 0019842 192.9051 167.1688 15.20153226175708 SONATE 1 44400U 19038Q 22251.54893184 .00005322 00000-0 28508-3 0 9995 2 44400 97.6446 220.4942 0022249 202.9592 157.0638 15.15239090175515 BeeSat 9 1 44412U 19038AC 22251.34341867 .00007607 00000-0 37678-3 0 9998 2 44412 97.6424 221.3287 0018966 202.0454 157.9965 15.17906214175260 JAISAT-1 1 44419U 19038F 22251.36919527 .00006713 00000-0 32865-3 0 9991 2 44419 97.6428 222.2563 0018046 198.3577 161.7007 15.18379872175636 LightSail-2 1 44420U 19036AC 22251.48152464 .00099362 00000-0 10076-1 0 9993 2 44420 23.9995 302.9791 0009814 153.1402 206.9606 14.89259971169552 Taurus 1 1 44530U 19059C 22251.73369922 .00001698 00000-0 47552-3 0 9993 2 44530 98.5489 351.0700 0012926 222.9479 137.0733 14.47328615157897 Duchifat 3 1 44854U 19089C 22251.60229079 .00003731 00000-0 28869-3 0 9999 2 44854 36.9680 327.2380 0007397 182.1978 319.5368 15.01519838150435 OPS-SAT 1 44878U 19092F 22251.50367991 .00008806 00000-0 39679-3 0 9993 2 44878 97.4811 74.8160 0013235 54.7533 305.4939 15.21207105150812 TO-108 1 44881U 19093C 22251.84072883 .00000463 00000-0 65317-4 0 9998 2 44881 97.8887 329.8411 0013610 276.3773 83.5877 14.81803182147127 FloripaSat 1 1 44885U 19093G 22251.72536719 .00001591 00000-0 20028-3 0 9994 2 44885 97.8928 331.2390 0013131 282.4384 77.5394 14.83375287147190 RS-44 1 44909U 19096E 22251.53371785 .00000016 00000-0 12879-4 0 9990 2 44909 82.5252 175.0905 0218162 125.2949 236.8772 12.79714689126133 BY70-2 1 45857U 20042B 22251.77460483 .00005975 00000-0 78404-3 0 9990 2 45857 97.9513 327.8542 0010066 199.0452 161.0450 14.80625614117787 UPMSat 2 1 46276U 20061E 22251.47158814 .00004050 00000-0 19851-3 0 9990 2 46276 97.3861 320.4021 0000898 156.2142 203.9134 15.18688515111473 AmicalSat 1 46287U 20061R 22251.41233985 .00005173 00000-0 29381-3 0 9995 2 46287 97.4406 319.1793 0002534 26.7367 333.3995 15.13342507111017 SALSAT 1 46495U 20068K 22251.35721649 .00002003 00000-0 14601-3 0 9993 2 46495 97.7335 192.7156 0016477 4.1068 356.0290 15.04800002106652 BY70-3 1 46839U 20079N 22251.81875729 .00028294 00000-0 59730-3 0 9999 2 46839 97.1917 322.9712 0005542 45.6906 89.4152 15.45148790103106 CAPE 3 1 47309U 21002A 22251.85918021 .00010196 00000-0 39680-3 0 9990 2 47309 60.6826 50.5123 0034934 33.5002 326.8286 15.26028864 91170 AO-109 1 47311U 21002C 22251.42797993 .00007887 00000-0 30727-3 0 9995 2 47311 60.6855 49.6328 0030920 34.3331 325.9747 15.26397792 91122 MiTEE 1 1 47314U 21002F 22251.83693124 .00020353 00000-0 64242-3 0 9996 2 47314 60.6822 38.8819 0028181 26.6145 333.6386 15.32536843 91367 ExoCube 2 1 47319U 21002L 22251.45087234 .00008971 00000-0 35224-3 0 9998 2 47319 60.6837 50.8036 0032417 35.2492 325.0732 15.25943105 91074 UVSQ-SAT 1 47438U 21006AB 22251.11165512 .00005968 00000-0 30953-3 0 9990 2 47438 97.4305 308.4353 0011243 356.2600 3.8547 15.16467307 89807 YUSAT 1 1 47439U 21006AC 22251.38421136 .00006975 00000-0 35530-3 0 9992 2 47439 97.4313 308.8679 0010878 355.1361 4.9765 15.17046782 89857 SOMP 2b 1 47445U 21006AJ 22251.59073145 .00005389 00000-0 28281-3 0 9998 2 47445 97.4277 308.4982 0011031 359.2788 0.8428 15.16100678 89862 IDEASSat 1 47458U 21006AX 22251.38349043 .00005312 00000-0 28019-3 0 9997 2 47458 97.4367 308.8685 0010205 359.0982 1.0230 15.15932776 89827 CubeSX-Sirius-HSE 1 47951U 21022V 22251.85207142 .00004567 00000-0 29966-3 0 9991 2 47951 97.5210 149.6111 0019877 217.2996 207.3011 15.07995713 80563 CubeSX-HSE 1 47952U 21022W 22251.77136352 .00003983 00000-0 26156-3 0 9996 2 47952 97.5206 149.5586 0019478 216.7880 215.8949 15.08047185 80552 KSU-Cubesat 1 47954U 21022Y 22251.70819865 .00003891 00000-0 25372-3 0 9995 2 47954 97.5211 149.6324 0019081 216.1392 143.8548 15.08328120 80278 GRBAlpha 1 47959U 21022AD 22251.83303249 .00003954 00000-0 25946-3 0 9995 2 47959 97.5199 149.6621 0019356 217.2978 207.9385 15.08077134 79382 Orbicraft-Zorkiy 1 47960U 21022AE 22251.73608227 .00005212 00000-0 33903-3 0 9991 2 47960 97.5226 149.7380 0019309 218.1605 226.4241 15.08259145 80061 STECCO 1 47962U 21022AG 22251.83406535 .00006838 00000-0 41788-3 0 9997 2 47962 97.5190 150.7365 0014278 208.2555 220.9220 15.10504673 79451 DO-111 1 47963U 21022AH 22251.19651109 .00015654 00000-0 82532-3 0 9994 2 47963 97.5228 151.6825 0015011 199.0864 160.9808 15.15562844 79477 MO-110 1 47964U 21022AJ 22251.64568309 .00006343 00000-0 38328-3 0 9993 2 47964 97.5208 150.8625 0017081 204.7476 155.2936 15.10906238 79447 FEES 1 48082U 21022AL 22251.47401207 .00010555 00000-0 62133-3 0 9990 2 48082 97.5214 150.6995 0013381 200.5926 159.4766 15.11736723 79120 RamSat 1 48850U 98067SL 22251.47281520 .00199509 00000-0 76397-3 0 9994 2 48850 51.6328 249.2663 0005860 47.9250 312.2251 15.86318481 70435 TUBIN 1 48900U 21059X 22251.84990058 .00003893 00000-0 21535-3 0 9995 2 48900 97.5637 20.5582 0010060 168.2311 342.9015 15.14417227 66539 IT-SPINS 1 49017U 21013G 22251.35929361 .00008480 00000-0 31963-3 0 9993 2 49017 51.5997 2.5198 0008567 16.4290 343.6965 15.27849369 66453 LEDSAT 1 49069U 21073D 22251.73896969 .00003681 00000-0 23374-3 0 9990 2 49069 97.5194 322.9830 0026934 12.6247 347.5651 15.09195068 58398 CUTE 1 49263U 21088D 22251.19563368 .00004314 00000-0 31845-3 0 9992 2 49263 97.5839 317.4643 0021046 140.8840 219.3912 15.03603590 51851 Binar-1 1 49272U 98067SR 22251.47714790 .00312161 47495-4 96527-3 0 9994 2 49272 51.6248 252.2066 0005042 38.6530 321.4836 15.91186903 52783 TeikyoSat 4 1 49396U 21102B 22251.70445088 .00001589 00000-0 12940-3 0 9997 2 49396 97.5276 307.1273 0016597 339.5090 20.5467 15.00804194 45532 Z-Sat 1 49399U 21102E 22251.86768147 .00000692 00000-0 56013-4 0 9995 2 49399 97.5287 308.3457 0021610 310.4174 49.5166 15.02782197 45613 KOSEN 1 1 49402U 21102H 22251.67050667 .00001161 00000-0 88282-4 0 9995 2 49402 97.5225 308.3304 0020477 300.3296 59.5904 15.03896974 45615 HO-113 1 50466U 21131B 22251.91795176 .00000143 00000-0 61299-4 0 9995 2 50466 98.5765 329.1173 0003467 252.8782 107.2026 14.38520269 36910 Tevel 1 50999U 22002R 22251.85250406 .00008219 00000-0 43274-3 0 9993 2 50999 97.4742 317.6035 0012222 126.9733 324.5894 15.15813887 36058 Grizu-263a 1 51025U 22002AT 22251.15414380 .00012896 00000-0 62693-3 0 9992 2 51025 97.4922 317.9646 0013676 134.0028 226.2336 15.18473260 35981 NO-116 1 51031U 22002AZ 22251.44927115 .00009518 00000-0 48229-3 0 9992 2 51031 97.4875 317.8883 0014083 132.5235 227.7190 15.17097603 36014 IRIS-A 1 51044U 22002BN 22251.49508548 .00003802 00000-0 21280-3 0 9994 2 51044 97.4762 316.8763 0010431 132.0403 228.1718 15.13995279 35971 DELFI-PQ 1 51074U 22002CU 22251.61808094 .00011438 00000-0 55239-3 0 9995 2 51074 97.5002 318.9777 0014121 160.1482 200.0304 15.18726797 36073 SO-115 1 51080U 22002DA 22251.64389500 .00007715 00000-0 38651-3 0 9993 2 51080 97.5021 318.8318 0014015 159.9204 200.2584 15.17566539 36067 SO-114 1 51081U 22002DB 22251.71021890 .00007558 00000-0 37861-3 0 9994 2 51081 97.5009 318.8711 0014351 159.5508 200.6303 15.17569990 36075 OreSat0 1 52017U 22026K 22251.42482430 .00007479 00000-0 39066-3 0 9990 2 52017 97.5056 250.2602 0026272 351.2269 8.8501 15.15892813 26758 Planetum 1 1 52738U 22057G 22251.55804852 .00005147 00000-0 29829-3 0 9990 2 52738 97.5189 4.9090 0007042 240.0142 120.0390 15.12612939 15992 Foresail-1 1 52766U 22057AL 22251.68661307 .00004399 00000-0 24692-3 0 9992 2 52766 97.5285 5.3811 0012647 221.3836 246.3278 15.13796274 16023 SNUGLITE 2 1 52899U 22065F 22251.86296358 .00000548 00000-0 12784-3 0 9999 2 52899 98.0302 40.4043 0008660 23.9325 336.2287 14.58406395 9854 CTIM 1 52950U 22074G 22251.56166365 .00015303 00000-0 61760-3 0 9991 2 52950 45.0075 107.0228 0003434 294.8654 65.1871 15.24701528 10415 MTCube 2 1 53106U 22080B 22251.65003628 -.00000003 00000-0 00000-0 0 9993 2 53106 70.1527 57.5296 0008202 244.4384 115.5450 6.42558288 3668 AstroBioCubeSat 1 53107U 22080C 22251.53398703 -.00000003 00000-0 00000 0 0 9991 2 53107 70.1446 57.6160 0013352 238.0817 121.8452 6.42110932 3552 GREENCUBE 1 53109U 22080E 22251.49210329 -.00000003 00000-0 00000-0 0 9996 2 53109 70.1359 57.3829 0009316 232.2738 127.7053 6.42583838 3549 CELESTA 1 53111U 22080G 22209.16019017 -.00000003 00000-0 00000-0 0 9997 2 53111 70.1517 72.3224 0015664 220.2144 139.7964 6.42532870 816 RS4S 1 53306U 98067TR 22251.62690037 .00045223 00000-0 70531-3 0 9997 2 53306 51.6403 282.6592 0000436 180.7480 179.3509 15.53382721 7618 RS3S 1 53308U 98067TT 22251.62638964 .00045744 00000-0 71396-3 0 9998 2 53308 51.6402 282.6555 0000659 138.2789 221.8251 15.53357403 7677 RS1S 1 53309U 98067TU 22251.81776259 .00046690 00000-0 72548-3 0 9991 2 53309 51.6399 281.6822 0000648 226.4401 133.6535 15.53472063 7651 RS5S 1 53310U 98067TV 22251.62603144 .00044421 00000-0 69394-3 0 9999 2 53310 51.6403 282.6538 0000481 233.3808 126.7138 15.53345383 7653 RS6S 1 53311U 98067TW 22251.81449911 .00045115 00000-0 69758-3 0 9996 2 53311 51.6397 281.6601 0000955 110.0719 250.0374 15.53622326 7708 RS9S 1 53312U 98067TX 22251.62310043 .00045245 00000-0 70251-3 0 9993 2 53312 51.6403 282.6329 0000870 233.9911 126.0999 15.53506131 7610 RS12S 1 53313U 98067TY 22251.81475372 .00045121 00000-0 69938-3 0 9995 2 53313 51.6402 281.6634 0000556 270.6129 89.4798 15.53554745 7699 /EX